McCall, ID

3:04 AM MST on December 11, 2017 (GMT -0700)
McCall

Weather History for KMYL - April, 2013

Change the Weather History Date:

Sunday, April 14, 2013

  Actual Average Record
Temperature  
Mean Temperature 31 °F 36 °F  
Max Temperature 39 °F 48 °F 73 °F (1988)
Min Temperature 22 °F 25 °F 10 °F (1953)
Degree Days  
Heating Degree Days 34 29  
Month to date heating degree days 371 427  
Since 1 July heating degree days 7463 8216  
Cooling Degree Days 0 0  
Month to date cooling degree days 0 0  
Year to date cooling degree days 0 0  
Moisture  
Dew Point 19 °F    
Average Humidity 57    
Maximum Humidity 78    
Minimum Humidity 35    
Precipitation  
Precipitation 0.01 in 0.06 in 0.64 in (1950)
Month to date precipitation 1.28 0.95  
Year to date precipitation 6.98 6.62  
Sea Level Pressure  
Sea Level Pressure 29.83 in    
Wind  
Wind Speed 4 mph (WNW)    
Max Wind Speed 14 mph    
Max Gust Speed 18 mph    
Visibility 9 miles    
Events Snow    
T = Trace of Precipitation, MM = Missing Value Source: NWS Daily Summary

Daily Weather History Graph

Daily Weather History Graph

Search for Another Location

Airport or City:

Trip Planner

Search our weather history database for the weather conditions in past years. The results will help you decide how hot, cold, wet, or windy it might be!

Date:

Astronomy

Apr. 14, 2013 Rise Set
Actual Time 7:01 AM MDT 8:28 PM MDT
Civil Twilight 6:30 AM MDT 8:59 PM MDT
Nautical Twilight 5:53 AM MDT 9:36 PM MDT
Astronomical Twilight 5:14 AM MDT 10:16 PM MDT
Moon 9:33 AM MDT (4/14) 12:02 AM MDT (4/14)
Length of Visible Light 14h 29m
Length of Day
13h 27m
Waxing Crescent, 17% of the Moon is Illuminated
Apr 14
Waxing Crescent
Apr 18
First Quarter
Apr 25
Full
May 2
Last Quarter
May 9
New

Hourly Weather History & Observations

Time (MDT) Temp. Windchill Dew Point Humidity Pressure Visibility Wind Dir Wind Speed Gust Speed Precip Events Conditions
12:51 AM 26.1 °F - 17.1 °F 69% 29.89 in 10.0 mi Calm Calm - N/A   Partly Cloudy
1:51 AM 25.0 °F 20.7 °F 18.0 °F 75% 29.90 in 10.0 mi ENE 3.5 mph - N/A   Overcast
2:51 AM 24.1 °F - 16.0 °F 71% 29.89 in 10.0 mi Calm Calm - N/A   Clear
3:51 AM 21.9 °F - 16.0 °F 78% 29.90 in 10.0 mi Calm Calm - N/A   Mostly Cloudy
4:51 AM 25.0 °F - 17.1 °F 72% 29.88 in 10.0 mi Calm Calm - N/A   Overcast
5:51 AM 24.1 °F - 18.0 °F 77% 29.90 in 10.0 mi Calm Calm - N/A   Overcast
6:51 AM 25.0 °F - 17.1 °F 72% 29.88 in 10.0 mi Calm Calm - N/A   Overcast
7:51 AM 24.1 °F - 17.1 °F 75% 29.90 in 10.0 mi Calm Calm - N/A   Mostly Cloudy
8:51 AM 27.0 °F 23.0 °F 17.1 °F 66% 29.90 in 10.0 mi WSW 3.5 mph - N/A   Mostly Cloudy
9:51 AM 28.0 °F - 16.0 °F 61% 29.91 in 10.0 mi Calm Calm - N/A   Scattered Clouds
10:51 AM 30.0 °F 24.1 °F 16.0 °F 56% 29.90 in 5.0 mi West 5.8 mph - 0.01 in Snow Light Snow
11:51 AM 35.1 °F 32.2 °F 15.1 °F 44% 29.87 in 10.0 mi Variable 3.5 mph - 0.00 in   Overcast
12:51 PM 33.1 °F 25.5 °F 16.0 °F 50% 29.87 in 10.0 mi SSW 9.2 mph - N/A   Scattered Clouds
1:51 PM 37.0 °F 31.6 °F 15.1 °F 41% 29.83 in 10.0 mi Variable 6.9 mph - N/A   Clear
2:51 PM 37.0 °F 30.4 °F 17.1 °F 44% 29.82 in 10.0 mi WSW 9.2 mph - N/A   Scattered Clouds
3:51 PM 35.1 °F 31.0 °F 10.9 °F 37% 29.81 in 10.0 mi Variable 4.6 mph - N/A   Clear
4:51 PM 37.0 °F 30.4 °F 16.0 °F 42% 29.78 in 10.0 mi North 9.2 mph - N/A   Mostly Cloudy
5:51 PM 32.0 °F 24.2 °F 21.9 °F 66% 29.81 in 10.0 mi NW 9.2 mph - N/A   Partly Cloudy
6:51 PM 33.1 °F 27.7 °F 21.9 °F 64% 29.80 in 10.0 mi SSW 5.8 mph - N/A   Overcast
7:51 PM 30.9 °F 23.5 °F 25.0 °F 79% 29.81 in 10.0 mi South 8.1 mph - N/A   Scattered Clouds
8:51 PM 28.9 °F - 23.0 °F 78% 29.81 in 10.0 mi Calm Calm - N/A   Scattered Clouds
9:30 PM 28.4 °F - 21.2 °F 74% 29.73 in 10.0 mi Calm Calm - N/A   Overcast
9:51 PM 28.0 °F 22.8 °F 23.0 °F 81% 29.81 in 10.0 mi NE 4.6 mph - N/A   Overcast
10:25 PM 28.4 °F - 24.8 °F 86% 29.73 in 1.8 mi Calm Calm - 0.00 in Snow Light Snow
10:36 PM 28.4 °F 24.6 °F 24.8 °F 86% 29.72 in 2.0 mi Variable 3.5 mph - 0.00 in Snow Light Snow
10:40 PM 28.4 °F 24.6 °F 24.8 °F 86% 29.72 in 3.0 mi NNE 3.5 mph - 0.00 in Snow Light Snow
10:51 PM 28.9 °F - 23.0 °F 78% 29.79 in 9.0 mi Calm Calm - 0.00 in   Overcast
11:51 PM 28.9 °F 22.8 °F 21.0 °F 72% 29.76 in 10.0 mi North 5.8 mph - N/A   Overcast